Regional Weather Roundup
Issued by NWS

Home | Current Version | Previous Version | Graphics & Text | Print | Product List | Glossary On
Versions: 1 2 3 4 5 6 7 8 9 10 11 12 13 14 15 16 17 18 19 20 21 22 23 24 25 26 27 28 29 30 31 32 33 34 35 36 37 38 39 40 41 42 43 44 45 46 47 48 49 50
000
ASUS43 KBIS 230820
RWRND

NORTH DAKOTA REGIONAL WEATHER ROUNDUP
NATIONAL WEATHER SERVICE BISMARCK ND
300 AM CDT WED APR 23 2014

NOTE: "FAIR" INDICATES FEW OR NO CLOUDS BELOW 12,000 FEET WITH NO
SIGNIFICANT WEATHER AND/OR OBSTRUCTIONS TO VISIBILITY.


NDZ001>003-009>011-017-230900-
NORTHWEST NORTH DAKOTA

CITY           SKY/WX    TMP DP  RH WIND       PRES   REMARKS
WILLISTON      CLOUDY    52  33  48 E25G40    29.51F
MINOT          MOCLDY    47  33  58 E20G25    29.71F
MINOT AFB      PTCLDY    46  34  63 SE23      29.71F
$$

NDZ018>021-031>035-040>046-230900-
SOUTHWEST NORTH DAKOTA

CITY           SKY/WX    TMP DP  RH WIND       PRES   REMARKS
BISMARCK       CLOUDY    52  40  63 SE24G31   29.70S
DICKINSON      CLOUDY    52  33  48 E18G28    29.53F
GARRISON         N/A     50  35  56 E18G25    29.67F
HETTINGER ARPT CLOUDY    51  33  50 E15       29.51F
$$

NDZ004>008-012>016-024-026-027-054-230900-
NORTHEAST NORTH DAKOTA

CITY           SKY/WX    TMP DP  RH WIND       PRES   REMARKS
GRAND FORKS    PTCLDY    44  27  51 SE12      29.95F
GRND FRKS AFB  PTCLDY    40  29  63 SE10      29.95S
DEVILS LAKE    PTCLDY    43  30  61 SE17G23   29.86F
$$

NDZ022-023-025-028>030-036>039-047>053-230900-
SOUTHEAST NORTH DAKOTA

CITY           SKY/WX    TMP DP  RH WIND       PRES   REMARKS
FARGO          CLOUDY    47  28  47 SE13      29.94F
JAMESTOWN      CLOUDY    50  35  56 SE23G31   29.83F
$$




USA.gov is the U.S. government's official web portal to all federal, state and local government web resources and services.